FW9022 Weather Reports


Display with metric or nautical units.
time (UTC)temp
F
wind
direction
speed
MPH
gust
MPH
rain 1hr
in
rain 24hr
in
rain mn
in
humidity
%
barometer
mb
20260902102821 65 21 0.0 0.0 0.00 0.00 0.00 97 1022.7
20260902101835 65 22 0.0 0.0 0.00 0.00 0.00 97 1022.7
20260902100843 65 21 0.0 0.0 0.00 0.00 0.00 98 1022.5
20260902095824 65 22 0.0 0.0 0.00 0.00 0.00 97 1022.3
20260902094837 65 22 0.0 0.0 0.00 0.00 0.00 97 1022.3
20260902093831 65 21 0.0 0.0 0.00 0.00 0.00 97 1022.2
20260902092830 65 22 0.0 0.0 0.00 0.00 0.00 97 1021.9
20260902091844 65 22 0.0 0.0 0.00 0.00 0.00 97 1021.9
20260902090848 65 21 0.0 0.0 0.00 0.00 0.00 97 1021.5
20260902085848 65 22 0.0 0.0 0.00 0.00 0.00 97 1021.6
20260902084824 66 21 0.0 0.0 0.00 0.00 0.00 97 1021.6
20260902083859 66 22 0.0 0.0 0.00 0.00 0.00 97 1021.5
20260902082832 66 22 0.0 0.0 0.00 0.00 0.00 97 1021.5
20260902081845 66 21 0.0 0.0 0.00 0.00 0.00 97 1021.5
20260902080852 66 22 0.0 0.0 0.00 0.00 0.00 97 1021.5
20260902075832 66 22 0.0 0.0 0.00 0.00 0.00 97 1021.6
20260902074827 66 22 0.0 0.0 0.00 0.00 0.00 97 1021.6
20260902073821 66 21 0.0 0.0 0.00 0.00 0.00 97 1021.5
20260902072836 66 22 0.0 0.0 0.00 0.00 0.00 97 1021.5
20260902071829 67 22 0.0 0.0 0.00 0.00 0.00 97 1021.5
20260902070853 67 21 0.0 0.0 0.00 0.00 0.00 97 1021.5
20260902065835 67 22 0.0 0.0 0.00 0.00 0.00 97 1021.6
20260902064829 67 22 0.0 0.0 0.00 0.00 0.00 96 1021.6
20260902063823 67 22 0.0 0.0 0.00 0.00 0.00 96 1021.6
20260902062836 67 22 0.0 0.0 0.00 0.00 0.00 96 1021.6
20260902061834 68 22 0.0 0.0 0.00 0.00 0.00 96 1021.6
20260902060838 68 22 0.0 0.0 0.00 0.00 0.00 96 1021.7
20260902055817 68 21 0.0 0.0 0.00 0.00 0.00 96 1021.8
20260902054836 68 21 0.0 0.0 0.00 0.00 0.00 96 1021.8
20260902053829 68 21 0.0 0.0 0.00 0.00 0.00 96 1021.8
20260902052824 68 21 0.0 0.0 0.00 0.00 0.00 96 1021.9
20260902051857 68 22 0.0 0.0 0.00 0.00 0.00 96 1021.9
20260902050844 68 21 0.0 0.0 0.00 0.00 0.00 96 1022.0
20260902045823 69 22 0.0 0.0 0.00 0.00 0.00 96 1021.7
20260902044817 69 21 0.0 0.0 0.00 0.00 0.00 95 1021.7
20260902043830 69 22 0.0 0.0 0.00 0.00 0.00 95 1021.5
20260902042828 69 22 0.0 0.0 0.00 0.00 0.00 96 1021.5
20260902041840 69 21 0.0 0.0 0.00 0.00 0.00 95 1021.5
20260902040903 69 22 0.0 0.0 0.00 0.00 0.00 95 1021.4
20260902035822 70 22 0.0 0.0 0.00 0.00 0.00 95 1021.2
20260902034820 70 22 0.0 0.0 0.00 0.00 0.00 95 1021.2
20260902033854 70 22 0.0 1.0 0.00 0.00 0.00 95 1021.2
20260902032826 70 22 0.0 0.0 0.00 0.00 0.00 95 1021.3
20260902031824 70 22 0.0 1.0 0.00 0.00 0.00 94 1021.3
20260902030849 71 22 0.0 0.0 0.00 0.00 0.00 94 1021.4
20260902025828 71 22 0.0 0.0 0.00 0.00 0.00 94 1021.5
20260902024822 71 22 0.0 1.0 0.00 0.00 0.00 94 1021.5
20260902023820 71 22 0.0 0.0 0.00 0.00 0.00 93 1021.3
20260902022853 72 21 0.0 0.0 0.00 0.00 0.00 93 1021.4
20260902021827 72 21 0.0 0.0 0.00 0.00 0.00 92 1021.4
20260902020851 72 22 0.0 0.0 0.00 0.00 0.00 92 1021.7
20260902015833 72 22 0.0 0.0 0.00 0.00 0.00 92 1021.6
20260902014828 73 22 0.0 0.0 0.00 0.00 0.00 91 1021.6
20260902013821 73 22 0.0 0.0 0.00 0.00 0.00 90 1021.5
20260902012839 74 22 0.0 0.0 0.00 0.00 0.00 90 1021.2
20260902011832 74 22 0.0 0.0 0.00 0.00 0.00 89 1021.2
20260902010836 75 21 0.0 0.0 0.00 0.00 0.00 88 1021.6
20260902005836 75 22 0.0 0.0 0.00 0.00 0.00 87 1021.4
20260902004834 76 22 0.0 0.0 0.00 0.00 0.00 86 1021.4
20260902003828 76 22 0.0 0.0 0.00 0.00 0.00 85 1021.3
20260902002842 77 22 0.0 0.0 0.00 0.00 0.00 83 1021.2
20260902001835 78 22 0.0 0.0 0.00 0.00 0.00 81 1021.2
20260902000844 79 22 0.0 0.0 0.00 0.00 0.00 79 1021.3
20260901235823 80 21 0.0 0.0 0.00 0.00 0.00 77 1021.0
20260901234818 82 21 0.0 0.0 0.00 0.00 0.00 74 1021.0
20260901233851 83 22 0.0 0.0 0.00 0.00 0.00 71 1020.9
20260901232827 84 21 0.0 0.0 0.00 0.00 0.00 69 1021.0
20260901231821 85 22 0.0 1.0 0.00 0.00 0.00 66 1021.0
20260901230845 85 22 0.0 2.0 0.00 0.00 0.00 63 1021.2
20260901225829 85 22 0.0 3.0 0.00 0.00 0.00 62 1021.0
20260901224822 85 22 0.0 3.0 0.00 0.00 0.00 62 1021.0
20260901223835 85 36 1.0 3.0 0.00 0.00 0.00 63 1021.0
20260901222829 85 347 0.0 2.0 0.00 0.00 0.00 63 1020.6
20260901221826 86 348 0.0 1.0 0.00 0.00 0.00 63 1020.6
20260901220832 86 346 0.0 1.0 0.00 0.00 0.00 62 1020.7
20260901215831 87 347 0.0 3.0 0.00 0.00 0.00 60 1020.6
20260901214830 88 346 0.0 3.0 0.00 0.00 0.00 59 1020.6
20260901213823 88 346 0.0 1.0 0.00 0.00 0.00 57 1020.8
20260901212836 88 346 0.0 2.0 0.00 0.00 0.00 56 1020.7
20260901211830 88 346 0.0 3.0 0.00 0.00 0.00 56 1020.7
20260901210838 88 355 1.0 4.0 0.00 0.00 0.00 56 1020.8
20260901205837 88 17 1.0 5.0 0.00 0.00 0.00 55 1020.8
20260901204832 88 22 1.0 4.0 0.00 0.00 0.00 56 1020.8
20260901203829 88 11 0.0 5.0 0.00 0.00 0.00 55 1020.9
20260901202824 88 22 1.0 5.0 0.00 0.00 0.00 58 1020.9
20260901201837 88 344 2.0 5.0 0.00 0.00 0.00 56 1020.9
20260901200842 88 5 1.0 3.0 0.00 0.00 0.00 56 1020.9
20260901195826 88 293 2.0 3.0 0.00 0.00 0.00 55 1020.9
20260901194819 89 293 1.0 2.0 0.00 0.00 0.00 56 1020.9
20260901193833 89 292 0.0 3.0 0.00 0.00 0.00 56 1021.0
20260901192831 88 306 0.0 4.0 0.00 0.00 0.00 54 1021.2
20260901191824 88 17 1.0 4.0 0.00 0.00 0.00 55 1021.2
20260901190849 88 36 0.0 3.0 0.00 0.00 0.00 58 1021.4
20260901185829 88 36 3.0 4.0 0.00 0.00 0.00 54 1021.4
20260901184827 88 15 2.0 4.0 0.00 0.00 0.00 56 1021.4
20260901183821 88 61 0.0 4.0 0.00 0.00 0.00 57 1021.5
20260901182834 88 52 2.0 6.0 0.00 0.00 0.00 57 1021.7
20260901181832 88 348 1.0 3.0 0.00 0.00 0.00 58 1021.7
20260901180836 88 44 3.0 4.0 0.00 0.00 0.00 57 1021.7
20260901175836 87 17 1.0 4.0 0.00 0.00 0.00 59 1021.6
20260901174830 87 360 2.0 3.0 0.00 0.00 0.00 60 1021.6
20260901173846 87 24 1.0 4.0 0.00 0.00 0.00 62 1021.7
20260901172819 87 22 2.0 4.0 0.00 0.00 0.00 63 1021.9
20260901171832 87 105 1.0 3.0 0.00 0.00 0.00 63 1021.9
20260901170840 86 313 1.0 3.0 0.00 0.00 0.00 64 1022.2
20260901165820 85 13 3.0 4.0 0.00 0.00 0.00 66 1022.4
20260901164835 85 13 1.0 3.0 0.00 0.00 0.00 69 1022.4
20260901163827 85 13 3.0 4.0 0.00 0.00 0.00 67 1022.5
20260901162825 85 336 1.0 3.0 0.00 0.00 0.00 69 1022.7
20260901161818 85 32 1.0 3.0 0.00 0.00 0.00 69 1022.7
20260901160843 85 34 1.0 3.0 0.00 0.00 0.00 68 1022.9
20260901155826 85 149 0.0 3.0 0.00 0.00 0.00 71 1022.9
20260901154819 84 149 1.0 2.0 0.00 0.00 0.00 70 1022.9
20260901153852 84 146 1.0 4.0 0.00 0.00 0.00 72 1023.0
20260901152825 83 142 1.0 3.0 0.00 0.00 0.00 73 1023.1
20260901151833 83 13 0.0 2.0 0.00 0.00 0.00 75 1023.1
20260901150842 82 13 0.0 2.0 0.00 0.00 0.00 76 1023.1
20260901145821 82 330 1.0 2.0 0.00 0.00 0.00 76 1023.1
20260901144836 81 311 0.0 0.0 0.00 0.00 0.00 76 1023.1
20260901143833 81 311 0.0 0.0 0.00 0.00 0.00 77 1023.1
20260901142828 81 311 0.0 0.0 0.00 0.00 0.00 78 1023.2
20260901141822 79 312 0.0 0.0 0.00 0.00 0.00 80 1023.2
20260901140847 79 312 0.0 0.0 0.00 0.00 0.00 81 1023.3
20260901135830 77 312 0.0 1.0 0.00 0.00 0.00 84 1023.3
20260901134824 77 312 0.0 0.0 0.00 0.00 0.00 84 1023.3
20260901133819 76 312 0.0 1.0 0.00 0.00 0.00 86 1023.4
20260901132837 75 312 0.0 1.0 0.00 0.00 0.00 90 1023.8
20260901131830 73 312 0.0 0.0 0.00 0.00 0.00 93 1023.8
20260901130834 71 312 0.0 0.0 0.00 0.00 0.00 98 1023.8
20260901125833 69 311 0.0 0.0 0.00 0.00 0.00 99 1023.1
20260901124832 68 311 0.0 0.0 0.00 0.00 0.00 99 1023.1
20260901123825 67 230 0.0 0.0 0.00 0.00 0.00 99 1023.1
20260901122818 66 136 0.0 0.0 0.00 0.00 0.00 99 1023.2
20260901121836 65 136 0.0 0.0 0.00 0.00 0.00 98 1023.2
20260901120840 65 136 0.0 0.0 0.00 0.00 0.00 98 1022.9
20260901115819 65 136 0.0 0.0 0.00 0.00 0.00 98 1022.6
20260901114833 64 136 0.0 0.0 0.00 0.00 0.00 98 1022.6
20260901113832 64 136 0.0 0.0 0.00 0.00 0.00 98 1022.5
20260901112825 64 136 0.0 0.0 0.00 0.00 0.00 98 1022.4
20260901111819 64 136 0.0 0.0 0.00 0.00 0.00 98 1022.4
20260901110903 64 136 0.0 0.0 0.00 0.00 0.00 98 1022.7
20260901105825 64 136 0.0 0.0 0.00 0.00 0.00 98 1022.6
20260901104818 64 136 0.0 0.0 0.00 0.00 0.00 97 1022.6
20260901103831 65 136 0.0 0.0 0.00 0.00 0.00 98 1022.6